User: anonymous   Login
Location: Unspecified
(0.0000°N, 0.0000°E)
Time: 00:02:01
(UTC+00:00)
Language:

NOSS 2-2 (E) - Orbit

View from above orbital plane
View from above orbital plane
View from above satellite
View from above satellite

Ground track
Ground track

The orbit data is extracted from the following two-line orbital elements,

1 21809U 91076E   17146.05478914 0.00000000  00000-0  00000-0 0    03
2 21809  63.3460 155.6851 0742000  22.2254 337.7746 13.41336987    07
Epoch (UTC): 26 May 2017 01:18:53
Eccentricity: 0.0742000
inclination: 63.3460°
perigee height: 549 km
apogee height: 1659 km
right ascension of ascending node: 155.6851°
argument of perigee: 22.2254°
revolutions per day: 13.41336987
mean anomaly at epoch: 337.7746°
orbit number at epoch: 0

The dashed part of the orbit path shows where the satellite is in the earth's shadow,  

DLR